Flag for Japan Weather past 2 weeks in Sendai, Japan

Now
41 °F

Drizzle. Fog.


Feels Like: 36 °F
Forecast: 34 / 48 °F
Wind: 7 mph from Northwest

Location: Sendai Airport

Current Time: Jan 26, 2015 at 5:36:08 PM

Latest Report: Jan 26, 2015 at 5:00 PM


Visibility: 1 mi

Pressure: 30.15 "Hg

Humidity: 100%

Dew point: 41 °F

Location of SendaiLocation

Historic Weather in Sendai — Graph

°F

Sendai temperature yesterday

Maximum temperature yesterday: 41 °F (at 12:00 PM)
Minimum temperature yesterday: 34 °F (at 6:00 AM)
Average temperature yesterday: 39 °F

Past Weeks' High & Low Weather Summary

 TemperatureHumidityPressure
High48 °F (Jan 13, 1:00 PM)100% (Jan 15, 9:00 PM)30.45 "Hg (Jan 15, 9:00 PM)
Low23 °F (Jan 21, 6:00 AM)34% (Jan 24, 12:00 PM)29.53 "Hg (Jan 23, 6:00 AM)
Average39 °F63%30.04 "Hg
* Reported Jan 11 4:00 PM — Jan 26 4:00 PM, Sendai, Weather by CustomWeather, © 2014

Note: Actual official high and low records may vary slightly from our data, if they occured in-between our weather recording intervals... More about our weather records

Advertising

Sendai weather history for previous 24 hours

 ConditionsComfort  
Time TempWeatherWind HumidityBarometerVisibility
4:00 PM
Jan 26
41 °FDrizzle. Fog.8 mph100%30.12 "Hg1 mi
3:46 PM41 °FDrizzle. Fog.8 mph100%30.12 "Hg1 mi
3:00 PM41 °FDrizzle. Fog.9 mph100%30.12 "Hg1 mi
2:00 PM41 °FDrizzle. Fog.8 mph100%30.15 "Hg1 mi
1:00 PM41 °FDrizzle. Fog.7 mph93%30.15 "Hg1 mi
12:00 PM43 °FDrizzle. Broken clouds.7 mph76%30.21 "Hg4 mi
11:00 AM43 °FPartly sunny.5 mph76%30.24 "HgN/A
10:00 AM43 °FBroken clouds.3 mph76%30.27 "HgN/A
9:00 AM41 °FPartly sunny.3 mph81%30.30 "HgN/A
8:00 AM39 °FBroken clouds.2 mph87%30.30 "HgN/A
7:00 AM39 °FPartly sunny.3 mph81%30.33 "HgN/A
6:00 AM39 °FPassing clouds.2 mph81%30.30 "HgN/A
9:00 PM
Jan 25
39 °FPassing clouds.No wind81%30.42 "HgN/A
8:00 PM37 °FPassing clouds.3 mph87%30.42 "HgN/A
7:00 PM37 °FPassing clouds.3 mph81%30.42 "HgN/A
6:00 PM41 °FPartly cloudy.3 mph70%30.39 "HgN/A
5:00 PM41 °FPartly cloudy.5 mph70%30.39 "HgN/A
Weather by CustomWeather, © 2014

See weather overviewHow to use our weather pages